EHI
3 3 3 3 3 2 2 3 3 2 2 3 3 3 3 3 3 3 3 4 5 7 9 12 12 11 10 10 9 6 4 3 3 2 2 3 3 3 3 3 3 3 3
2 2 2 2 2 2 1 2 2 2 2 3 3 3 3 3 3 3 3 4 5 7 9 10 12 11 10 11 10 8 5 4 3 1 1 3 3 3 3 3 3 3 3
2 2 2 2 2 2 1 1 2 2 3 3 3 3 3 3 3 3 3 3 5 6 7 9 9 9 9 10 10 9 7 5 3 1 1 2 3 3 3 3 3 3 3
3 3 3 2 3 3 3 2 3 3 3 3 3 3 3 3 3 3 3 3 4 5 6 8 9 9 8 7 9 9 7 5 3 1 1 2 3 3 3 3 3 3 3
5 4 4 3 3 3 3 3 3 3 3 3 3 3 3 3 3 3 3 3 3 3 4 7 11 11 8 7 8 8 7 5 3 2 2 3 3 3 3 3 3 3 3
4 4 4 4 4 4 3 3 3 3 3 3 3 3 3 3 3 3 3 3 3 3 4 6 9 9 8 8 8 7 5 4 3 3 3 3 3 2 3 3 3 3 3
4 4 5 5 5 4 4 3 3 3 3 3 3 3 3 3 3 3 3 3 3 3 4 5 4 4 4 5 6 6 5 4 4 3 3 3 3 3 3 3 3 3 3
6 5 4 4 4 4 3 3 3 3 3 3 3 3 3 3 3 3 3 3 3 2 3 2 1 1 1 2 3 5 6 6 5 4 3 3 3 3 3 3 3 3 3
8 7 5 3 3 3 3 3 3 3 3 3 3 3 3 3 3 2 2 3 2 1 1 1 0 0 0 0 1 4 5 6 7 7 5 5 4 3 3 3 3 3 3
10 9 7 5 4 4 4 3 3 3 3 3 3 3 3 3 3 2 2 2 2 1 0 0 0 0 0 0 1 3 4 5 7 7 7 7 6 4 4 3 3 3 3
11 11 11 8 6 6 5 4 3 3 3 3 2 2 1 1 2 2 2 2 2 1 0 0 0 0 0 0 1 3 3 4 5 5 6 7 6 5 5 4 3 3 3
11 12 12 10 8 7 6 6 5 4 3 2 1 1 0 0 1 2 2 1 1 1 0 0 0 0 0 0 2 3 4 3 3 3 4 4 5 5 4 3 3 3 3
11 12 12 11 10 9 8 7 7 6 4 3 2 1 0 1 1 3 3 1 0 0 0 0 0 0 0 0 1 3 4 3 3 3 3 3 3 3 3 2 1 1 2
9 10 12 13 12 10 9 9 9 7 4 3 3 2 1 1 2 3 3 2 1 0 0 0 0 0 0 0 0 1 1 1 1 2 2 3 3 2 1 1 0 0 1
5 7 10 12 11 10 10 9 8 5 2 1 2 2 2 1 1 3 3 2 1 0 0 0 0 0 0 0 0 0 0 0 0 1 1 1 2 1 0 0 1 1 1
5 7 9 10 9 9 9 8 6 3 1 1 1 1 1 1 1 2 2 2 1 1 0 0 0 0 0 0 0 0 0 0 0 0 0 0 0 0 0 1 2 2 2
9 10 11 10 8 9 8 6 5 4 3 3 3 2 2 2 1 1 1 1 2 1 0 0 0 0 0 0 0 0 0 1 1 0 0 0 0 0 0 1 2 2 2
13 14 14 12 10 9 8 6 4 4 5 4 3 4 4 4 3 2 1 2 2 2 1 0 0 0 0 0 0 0 0 1 1 0 0 0 0 0 0 0 1 1 1
16 16 15 13 11 10 9 7 5 4 3 2 2 4 5 6 6 5 4 3 4 3 1 1 0 0 0 0 1 0 0 1 1 0 0 0 0 0 0 0 0 0 0
19 18 17 14 13 11 10 8 6 5 4 3 3 4 5 6 7 7 6 5 4 3 1 1 1 0 0 0 0 0 0 0 0 0 0 0 0 0 0 0 0 0 0
20 21 20 19 17 15 12 10 9 8 6 5 3 3 4 6 7 6 5 4 3 1 0 0 0 0 0 0 0 0 0 0 0 0 0 0 0 0 0 0 0 0 0
23 23 24 24 22 18 14 11 9 8 7 6 3 2 3 5 5 4 4 3 2 1 0 0 0 0 0 0 0 0 0 0 0 0 0 0 0 0 0 0 0 0 0
26 26 26 26 25 20 13 9 7 6 6 6 4 2 2 3 3 3 2 1 1 0 0 0 0 0 0 0 0 0 0 0 0 0 0 0 0 0 0 0 0 0 0
24 24 24 25 24 19 11 7 6 6 5 5 4 3 1 1 2 2 1 0 0 0 0 0 0 0 0 0 0 0 0 0 0 0 0 0 0 0 0 0 0 0 0
21 20 21 22 22 17 11 7 6 6 6 4 3 2 0 0 1 1 0 0 0 0 0 0 0 0 0 0 0 0 0 0 0 0 0 0 0 0 0 0 0 0 0
22 21 20 19 19 16 12 7 5 6 7 6 3 1 0 0 0 0 0 0 0 0 0 0 0 0 0 0 0 0 0 0 0 0 0 0 0 0 0 0 0 0 0
Wind_Speed
1 1 1 1 1 1 1 1 1 0 0 1 1 3 3 4 4 3 3 9 10 9 9 10 10 9 9 9 9 8 8 8 7 6 6 6 6 7 7 7 7 7 7
2 1 1 1 1 1 1 1 1 1 0 1 1 2 3 3 4 4 3 5 8 8 8 9 9 9 9 9 9 9 8 8 7 7 6 6 6 6 6 6 6 6 6
2 2 1 1 1 0 0 1 1 1 1 1 1 1 1 2 3 4 3 2 3 6 7 8 8 8 9 9 8 8 7 7 7 7 7 7 6 5 5 6 6 6 6
3 2 1 1 0 1 1 1 1 1 1 1 1 1 1 1 2 3 3 2 2 3 4 7 7 6 6 7 8 8 7 7 7 7 7 7 7 6 5 5 4 4 4
2 2 1 1 0 1 1 1 1 1 1 1 1 1 1 1 1 3 3 3 3 2 2 4 5 5 5 5 5 6 6 6 6 6 6 6 6 6 5 4 4 3 4
2 2 1 1 1 1 1 1 1 1 1 1 1 2 1 1 1 1 2 2 2 3 2 2 2 3 4 3 3 4 5 5 5 5 5 5 5 5 5 5 4 3 3
2 2 1 1 1 1 1 2 1 1 0 1 2 1 2 2 1 0 1 1 1 2 2 2 1 1 1 2 2 3 4 5 5 5 4 4 4 4 4 4 4 4 4
2 2 2 1 1 1 1 1 2 1 1 1 2 1 1 3 3 1 1 1 1 1 2 2 2 1 1 0 1 3 4 4 5 5 5 4 3 3 3 3 3 3 3
2 2 2 2 1 2 2 2 2 2 2 1 1 3 2 2 1 2 1 1 1 1 1 1 2 2 1 1 0 1 3 3 5 5 5 5 4 3 3 3 3 2 2
1 1 2 2 2 1 1 2 2 2 2 1 1 1 2 3 2 0 2 2 1 1 1 1 1 2 1 1 2 4 3 3 4 5 4 4 4 4 3 3 3 3 3
1 1 1 1 1 1 1 1 1 1 2 2 1 1 1 0 2 2 1 1 1 1 0 1 1 1 1 1 2 3 4 4 4 4 4 4 4 4 4 4 4 4 4
1 1 0 1 1 1 1 1 1 1 1 1 1 1 1 1 2 2 2 2 0 1 1 1 1 1 1 1 2 6 6 5 4 4 4 4 4 4 4 4 3 4 4
1 1 0 1 0 0 0 0 1 1 1 1 1 1 1 1 2 2 3 2 1 0 1 1 0 1 1 1 1 5 5 6 5 5 4 4 4 4 4 4 4 4 4
1 1 1 1 1 1 0 0 0 1 0 0 0 0 0 0 1 2 3 3 1 0 1 0 1 0 1 1 3 5 3 6 6 5 4 4 4 4 4 4 4 4 3
1 1 1 2 1 1 1 1 1 0 0 0 0 0 1 0 1 1 2 3 4 2 1 1 0 0 1 1 3 2 2 5 6 6 5 5 5 5 5 6 5 5 5
1 2 2 2 1 1 1 1 1 1 1 1 0 1 1 0 0 1 1 1 2 3 2 1 1 1 2 2 4 3 2 5 6 6 6 6 6 6 6 5 5 5 4
2 2 2 2 2 1 1 2 1 1 2 1 1 1 1 0 1 0 1 1 1 2 2 0 0 1 2 3 2 2 2 2 2 6 6 6 6 6 5 5 4 4 4
2 2 2 2 2 1 1 2 1 1 2 1 1 1 0 1 1 0 1 1 1 2 3 3 1 1 1 3 3 3 2 2 2 4 5 5 5 5 5 5 4 4 3
3 2 3 3 2 1 1 1 1 1 1 1 1 1 0 1 1 0 1 1 1 2 2 3 2 1 1 2 2 2 2 1 1 2 3 4 4 4 4 4 3 3 3
4 3 3 2 2 2 1 1 1 1 1 0 0 1 0 1 1 1 1 2 2 3 3 3 2 2 2 1 2 2 1 0 1 1 2 2 3 3 3 3 3 3 2
4 4 3 2 1 1 1 2 1 2 2 1 0 1 1 2 2 2 2 2 3 3 3 3 3 2 1 1 2 2 2 1 0 1 1 1 1 0 1 2 2 3 2
3 3 3 3 2 1 2 3 2 2 2 2 1 0 1 2 3 3 4 4 5 5 4 3 2 3 3 3 2 2 2 1 1 1 2 1 1 1 1 2 3 3 3
4 4 4 3 3 2 2 3 3 2 2 2 2 1 1 2 2 3 4 4 3 3 5 5 4 4 4 4 4 3 2 2 2 2 2 1 1 2 2 3 6 5 5
4 4 4 4 3 2 3 4 4 2 1 1 2 2 2 2 2 3 4 3 2 1 2 3 4 4 4 4 5 5 4 2 0 0 2 2 2 2 2 2 6 7 7
4 4 4 4 4 3 4 5 5 2 2 1 1 2 3 2 2 4 4 3 2 1 1 2 3 2 4 5 5 3 3 2 0 2 1 2 2 1 2 3 4 7 7
5 4 4 4 5 4 5 6 6 3 2 2 1 1 2 3 4 5 4 4 2 1 1 2 2 2 1 3 4 5 5 3 2 2 2 2 2 1 1 2 2 3 4
Wind_Direction
167 175 200 198 195 194 183 179 190 214 210 191 168 161 157 163 168 166 175 180 181 183 185 186 185 188 189 192 197 199 202 205 204 202 204 207 205 208 211 211 209 208 208
161 167 178 183 196 197 189 176 187 180 183 140 144 159 162 165 164 169 182 188 188 187 190 191 190 192 192 195 201 205 207 209 205 205 207 208 208 208 203 205 207 207 207
148 151 143 163 209 180 151 123 124 108 94 92 100 128 147 157 164 174 178 186 195 196 198 201 200 202 203 205 202 201 199 200 200 203 206 205 204 207 206 208 205 208 212
145 144 138 177 238 104 110 119 120 100 64 71 77 79 115 138 160 166 168 179 196 209 216 211 209 206 211 210 209 204 202 204 205 205 205 206 203 201 203 206 204 205 207
150 139 155 196 185 104 106 127 115 139 136 110 104 69 86 125 155 162 172 183 186 190 201 214 209 197 209 210 207 202 201 203 202 204 206 204 200 194 195 199 202 208 210
159 135 155 199 155 121 86 97 133 131 146 138 92 50 18 17 132 157 178 182 188 189 188 195 199 205 206 209 208 203 200 197 193 196 197 192 188 188 190 191 193 199 212
157 143 151 165 155 149 170 152 138 107 95 122 94 43 11 7 7 228 169 161 176 179 157 163 182 199 220 207 201 195 189 185 180 178 179 176 178 184 191 191 197 202 207
171 157 163 176 170 150 140 146 141 136 205 158 139 124 17 356 358 2 70 137 163 165 158 158 137 140 151 173 115 154 170 177 169 169 163 154 148 146 163 170 180 195 206
182 173 169 181 181 170 183 199 183 172 205 238 172 152 161 206 301 348 12 56 97 109 144 140 132 137 145 133 149 146 161 176 174 168 156 149 142 133 129 127 129 122 137
196 192 191 189 190 187 192 209 191 189 176 223 249 206 183 168 161 279 340 4 44 84 127 140 133 147 152 153 128 119 131 140 143 146 149 150 148 141 135 130 125 115 108
283 243 190 179 190 198 201 207 206 196 185 198 214 217 179 156 158 167 229 314 16 10 61 116 122 128 150 163 167 144 140 134 134 139 144 143 140 141 137 134 127 120 110
299 303 147 163 189 199 208 215 206 203 201 192 192 180 175 178 187 171 187 201 196 314 36 86 121 130 137 146 144 136 138 134 137 140 139 143 140 133 130 127 126 122 115
264 274 108 116 119 189 165 151 152 173 195 178 183 196 192 204 181 160 156 175 178 282 37 25 69 133 131 117 127 122 125 129 128 127 128 125 118 113 122 127 125 121 112
206 207 138 119 124 121 96 93 127 177 137 176 25 80 99 74 137 151 160 157 150 2 15 294 360 85 115 127 116 114 115 115 115 118 126 122 116 113 108 105 107 108 105
164 141 126 117 108 99 98 100 82 88 64 51 19 52 67 39 106 140 147 159 159 177 227 225 196 226 158 133 119 113 114 116 113 111 118 122 113 107 101 96 94 93 92
143 128 120 112 94 72 71 84 79 79 90 53 79 73 44 36 82 103 136 142 145 160 180 198 193 190 163 140 126 113 113 114 114 115 117 121 116 110 105 102 101 97 95
137 139 140 125 106 82 79 83 81 95 96 67 48 86 60 60 79 87 113 126 124 131 143 146 96 116 119 126 118 109 102 99 118 119 117 117 115 113 111 108 104 102 100
144 150 145 134 125 108 92 95 92 87 104 93 53 77 40 48 65 92 113 120 129 124 135 138 106 104 108 139 130 126 116 116 113 123 119 117 118 120 116 108 102 102 104
150 138 138 144 143 132 115 118 124 104 100 110 105 109 101 92 43 48 101 115 118 114 109 128 125 99 89 124 113 115 114 105 135 133 132 126 122 118 123 123 118 108 99
155 154 152 156 157 147 140 141 131 114 108 85 75 107 108 133 159 132 113 123 120 110 106 116 112 104 93 98 118 131 115 102 164 149 139 148 145 140 134 141 143 138 133
163 160 155 159 162 161 169 161 160 148 145 136 36 38 96 113 110 116 122 137 134 129 124 123 125 117 121 134 175 174 154 131 319 170 132 180 147 162 187 194 191 185 182
163 156 165 172 184 203 164 157 158 155 156 153 152 51 72 78 93 105 114 125 142 150 155 150 151 165 185 182 176 169 146 133 256 231 148 235 162 212 227 215 213 201 202
167 163 173 175 187 204 170 165 164 158 161 175 173 153 101 82 84 99 98 92 99 130 153 159 166 186 189 192 175 174 176 173 204 203 150 233 226 236 238 225 215 213 212
178 183 186 185 185 205 184 174 166 156 154 180 178 160 139 126 124 121 110 89 77 90 175 165 177 191 190 185 184 181 177 159 118 205 157 198 231 239 245 237 227 219 217
185 191 188 187 192 214 198 179 169 158 150 173 184 163 153 153 153 135 120 110 82 16 44 118 141 159 165 164 160 136 133 135 199 270 198 175 219 241 253 249 243 231 226
191 188 193 199 197 208 203 186 173 168 168 174 178 191 178 166 161 148 143 141 146 197 103 69 65 68 129 166 162 168 169 162 168 239 219 177 189 157 274 269 242 233 229